www.pogodaiklimat.ru

Погода и климат >> Архив погоды >> Мозамбик >> Шаи-Шаи


ПОГОДА в Шаи-Шаи

  • Прогноз погоды в Шаи-Шаи
  • Монитор погоды в Шаи-Шаи

АРХИВ ПОГОДЫ в Шаи-Шаи

Время (UTC), дата Ветер
(напр.,м/с)
 
Видим.   Явления Облачность Т
(С)
Тd
(С)
f
(%)
Тe
(С)
Тes
(С)
Комфортность P
(гПа)
Po
(гПа)
Тmin
(С)
Tmax
(С)
R
(мм)
R24
(мм)
S
(см)
09 20.05 СЗ 3 30 км 8/8 600 м
[Cu med, cong]
+26.0 +18.1 62 +31 +32 очень
душно
1017.6 1017.0
12 20.05 Ю 4 30 км 1/1 600 м
[Cu hum]
+28.0 +18.7 57 +33 +38 очень
душно
1014.4 1013.8
15 20.05 Ю 2 30 км ясно +24.5 +19.7 75 +30 +30 очень
душно
1013.8 1013.2
18 20.05 В 3 30 км ясно +21.5 +19.0 86 +26 +26 душно 1015.0 1014.4 +28.8
21 20.05 В 3 30 км ясно +21.1 +19.1 88 +25 +25 комфорт 1014.9 1014.3
00 21.05 В 4 30 км ясно +20.3 +18.1 87 +24 +24 комфорт 1014.1 1013.5
03 21.05 С 3 30 км ясно +20.0 +18.2 89 +23 +23 комфорт 1014.0 1013.4
06 21.05 С 2 30 км ясно +19.5 +18.0 91 +22 +25 комфорт 1015.6 1015.0 +17.9
09 21.05 С 4 30 км ясно +26.5 +18.7 62 +31 +38 душно 1016.3 1015.7
18 21.05 Ю 4 30 км ясно +22.8 +20.3 86 +30 +30 очень
душно
1017.1 1016.5 +28.3
03 22.05 Ю 3 8000 м слаб. дождь 9/9 600 м
[Cu med, cong]
+22.6 +20.9 90 +30 +30 очень
душно
1017.9 1017.3
06 22.05 З 3 30 км {дождь} 9/9 600 м
[Cu Sc]
+22.5 +21.1 92 +30 +30 очень
душно
1019.2 1018.6 +21.5 0.1
09 22.05 ЮЗ 5 15 км в посл. час дождь 8/8 600 м
[Cu med, cong]
+24.5 +21.7 84 +31 +32 очень
душно
1019.8 1019.2
12 22.05 Ю 4 30 км {дождь} 8/8 600 м
[Cu med, cong]
+26.2 +20.8 72 +33 +34 очень
душно
1018.1 1017.5 0.0
15 22.05 Ю 3 30 км 1/1 600 м
[Cu med, cong]
+24.0 +21.4 85 +30 +30 очень
душно
1017.8 1017.2
18 22.05 штиль 0 30 км ясно +20.7 +19.8 95 +25 +25 комфорт 1018.6 1018.0 +26.7
03 23.05 штиль 0 30 км ясно +19.0 +18.7 98 +21 +21 комфорт 1018.7 1018.1
06 23.05 штиль 0 30 км ясно +19.8 +17.3 86 +22 +25 комфорт 1019.4 1018.8 +17.4
09 23.05 С 2 30 км 6/6 600 м
[Cu med, cong]
+25.1 +19.4 71 +30 +35 душно 1019.9 1019.3
12 23.05 С 2 30 км 5/5 600 м
[Cu med, cong]
+28.5 +18.8 56 +34 +37 очень
душно
1017.7 1017.1
15 23.05 В 2 30 км ясно +24.2 +20.0 77 +30 +30 очень
душно
1018.1 1017.5
18 23.05 ЮВ 3 30 км ясно +21.7 +20.0 90 +27 +27 душно 1020.3 1019.7 +28.5
21 23.05 штиль 0 30 км ясно +19.6 +18.8 95 +22 +22 комфорт 1021.3 1020.7
00 24.05 штиль 0 30 км ясно +17.4 +16.9 97 +17 +17 1021.4 1020.8
03 24.05 штиль 0 30 км 3/3 600 м
[Cu med, cong]
+15.5 +15.2 98 +15 +15 1021.7 1021.1
06 24.05 штиль 0 30 км в посл. час туман 1/1 600 м
[Cu hum]
+19.4 +19.1 98 +22 +24 комфорт 1023.4 1022.8 +15.2
09 24.05 В 4 30 км 5/5 600 м
[Cu med, cong]
+25.7 +17.4 60 +30 +33 душно 1024.2 1023.6
12 24.05 ЮВ 4 30 км 3/3 600 м
[Cu med, cong Ci fib]
+25.8 +16.4 56 +29 +33 душно 1022.3 1021.7
18 24.05 ЮВ 2 30 км ясно +18.0 +16.0 88 +19 +19 1022.5 1021.9 +26.3
21 24.05 штиль 0 30 км ясно +17.2 +16.0 93 +17 +17 1023.1 1022.5
00 25.05 штиль 0 30 км 4/4 600 м
[Cu med, cong]
+15.2 +15.0 99 +15 +15 1021.9 1021.3
03 25.05 штиль 0 30 км 3/3 600 м
[Cu med, cong]
+14.2 +13.8 97 +14 +14 1022.0 1021.4
06 25.05 штиль 0 30 км 4/4 600 м
[Cu med, cong]
+18.0 +17.0 94 +18 +20 1023.6 1023.0 +13.5
09 25.05 ЮВ 3 30 км 4/4 600 м
[Cu med, cong]
+24.8 +16.2 59 +28 +33 жарко 1023.5 1022.9
12 25.05 ЮВ 3 30 км 3/3 600 м
[Cu med, cong]
+25.5 +15.1 53 +28 +32 жарко 1021.4 1020.8
15 25.05 ЮВ 3 30 км 1/1 600 м
[Cu med, cong]
+22.7 +16.3 67 +27 +27 душно 1021.5 1020.9
18 25.05 штиль 0 30 км 1/1 600 м
[Cu hum]
+17.0 +16.0 94 +17 +17 1022.2 1021.6 +26.2
21 25.05 штиль 0 30 км 1/1 600 м
[Cu hum]
+15.0 +13.7 92 +15 +15 1022.0 1021.4
00 26.05 штиль 0 30 км 1/1 600 м
[Cu med, cong]
+13.5 +12.6 94 +13 +13 1021.2 1020.6
03 26.05 штиль 0 30 км 1/1 600 м
[Cu hum]
+12.4 +11.7 95 +12 +12 1020.7 1020.1
06 26.05 штиль 0 30 км 3/3 600 м
[Cu med, cong]
+16.5 +14.2 86 +16 +18 1021.7 1021.1 +12.0
09 26.05 ЮВ 3 30 км 8/8 600 м
[Cu med, cong]
+24.6 +16.7 61 +28 +30 душно 1021.2 1020.6
12 26.05 Ю 3 30 км 4/4 600 м
[Cu med, cong]
+24.3 +15.9 59 +27 +31 жарко 1019.1 1018.5
15 26.05 ЮВ 3 30 км 1/1 600 м
[Cu med, cong]
+22.8 +15.3 63 +27 +27 душно 1019.1 1018.5
18 26.05 штиль 0 30 км ясно +15.8 +15.1 96 +16 +16 1020.0 1019.4 +25.8
21 26.05 штиль 0 30 км ясно +13.8 +12.9 94 +13 +13 1019.5 1018.9
00 27.05 штиль 0 30 км ясно +12.5 +12.5 100 +12 +12 1018.9 1018.3
03 27.05 штиль 0 30 км 1/1 600 м
[]
+11.7 +11.3 97 +11 +11 1018.7 1018.1
06 27.05 штиль 0 30 км 3/3 600 м
[Cu med, cong]
+15.1 +14.8 98 +15 +17 1020.6 1020.0 +11.5

 

Местоположение метеостанции Шаи-Шаи (Мозамбик): широта -25.05 долгота 33.63 высота над уровнем моря 5 м.

В архиве по умолчанию представлена погода в Шаи-Шаи за последнюю неделю. Архивные данные за месяц целиком и за предыдущие месяцы, начиная с января 2011 года, Вы можете получить, выбрав интересующий диапазон дат из раскрывающегося списка и нажав кнопку "Ввод!".


*Определитесь, кто Вы:
робот инопланетянин человек

Внимание! Время в таблицах - всемирное. Для получения местного времени необходимо прибавить поправку, которая равна 2 ч.

Смотрите также архив погоды в соседних городах и на ближайших метеорологических станциях:

Погода в Панда (Мозамбик) (119 км)
Погода в Мапуту (Мозамбик) (143 км)
Погода в Коматидрааи (Южная Африка) (181 км)
Погода в Чангалане (Мозамбик) (200 км)
Погода в Скукузе (Южная Африка) (205 км)
Погода в Вувулане (Свазиленд) (205 км)
Погода в Иньямбане (Мозамбик) (220 км)
Погода в Ситеки (Свазиленд) (228 км)
Погода в Майиване (Свазиленд) (232 км)
Погода в Пиггс-Пике (Свазиленд) (260 км)

Пояснения к столбцам:

Ветер - указаны скорость ветра в м/с - средняя за 10 мин, порывы в срок и между сроками (в фигурных скобках) и направление, откуда дует ветер: С - северный, СВ - северо-восточный, В - восточный, ЮВ - юго-восточный, Ю - южный, ЮЗ - юго-западный, З - западный, СЗ - северо-западный.
Видимость - горизонтальная дальность видимости в метрах или километрах. При видимости от 1 до 10 км при отсутствии осадков обычно наблюдается дымка, при ухудшении видимости до 1 км и менее - туман. В сухую погоду видимость может ухудшаться дымом, пылью или мглою.
Явления - указаны атмосферные явления, наблюдавшиеся в срок или в последний час перед сроком; фигурными скобками обозначены явления, наблюдавшиеся между сроками (за 1-3 часа до срока); квадратными скобками обозначены град или гололедные отложения с указанием их диаметра в мм.
Облачность - указаны через наклонную черту общая и нижняя облачность в баллах и высота нижней границы облаков в метрах; квадратными скобками обозначены формы облаков: Ci - перистые, Cs - перисто-слоистые, Cc - перисто-кучевые, Ac - высококучевые, As - высокослоистые, Sc - слоисто-кучевые, Ns - слоисто-дождевые, Cu - кучевые, Cb - кучево-дождевые. Подробнее классификацию облаков см. в Атласе облаков (PDF).
T - Температура воздуха - температура, измеренная на высоте 2 м над землей.
Td - Температура точки росы - температура, при понижении до которой содержащийся в воздухе водяной пар достигнет насыщения.
f - Относительная влажность воздуха - влажноcть воздуха, измеренная на высоте 2 м над землей.
Te - Эффективная температура - температура, которую ощущает одетый по сезону человек в тени. Характеристика душности погоды. При расчете учитывается влияние влажности воздуха и скорости ветра на теплоощущения человека.
Tes - Эффективная температура на солнце - температура, которую ощущает человек, с поправкой на солнечный нагрев. Характеристика знойности погоды. Зависит от высоты солнца над горизонтом, облачности и скорости ветра. Ночью, в пасмурную погоду, а также при ветре 12 м/с и более поправка равна нулю.
P - Атмосферное давление - приведенное к уровню моря атмосферное давление.
Po - Атмосферное давление - измеренное на уровне метеостанции атмосферное давление.
Tmin - Минимальная температура - минимум температуры воздуха на высоте 2 м над землей.
Tmax - Максимальная температура - максимум температуры воздуха на высоте 2 м над землей.
R - Количество осадков - Количество выпавших осадков за период времени, мм. При наведении курсора мыши на число - период времени, за который выпало указанное количество осадков.
R24 - Количество осадков - Количество выпавших осадков за 24 часа, мм.
S - Снежный покров - Высота снежного покрова, см. При наведении курсора мыши на число - состояние снежного покрова и степень покрытия местности в баллах.